Year,Month,Day,Hour,Minute,Value (Times are PST for temperature in C)
2021,06,27,00,00,25.30
2021,06,27,00,01,25.30
2021,06,27,00,02,25.30
2021,06,27,00,03,25.30
2021,06,27,00,04,25.30
2021,06,27,00,05,25.30
2021,06,27,00,06,25.20
2021,06,27,00,07,25.20
2021,06,27,00,08,25.10
2021,06,27,00,09,25.10
2021,06,27,00,10,25.10
2021,06,27,00,11,25.10
2021,06,27,00,12,25.10
2021,06,27,00,13,25.10
2021,06,27,00,14,25.10
2021,06,27,00,15,25.10
2021,06,27,00,16,25.10
2021,06,27,00,17,25.10
2021,06,27,00,18,25.10
2021,06,27,00,19,25.00
2021,06,27,00,20,25.00
2021,06,27,00,21,25.00
2021,06,27,00,22,25.00
2021,06,27,00,23,25.00
2021,06,27,00,24,25.00
2021,06,27,00,25,25.00
2021,06,27,00,26,25.00
2021,06,27,00,27,24.90
2021,06,27,00,28,24.90
2021,06,27,00,29,24.90
2021,06,27,00,30,24.90
2021,06,27,00,31,24.80
2021,06,27,00,32,24.80
2021,06,27,00,33,24.80
2021,06,27,00,34,24.80
2021,06,27,00,35,24.80
2021,06,27,00,36,24.80
2021,06,27,00,37,24.80
2021,06,27,00,38,24.80
2021,06,27,00,39,24.80
2021,06,27,00,40,24.80
2021,06,27,00,41,24.80
2021,06,27,00,42,24.80
2021,06,27,00,43,24.70
2021,06,27,00,44,24.70
2021,06,27,00,45,24.60
2021,06,27,00,46,24.60
2021,06,27,00,47,24.50
2021,06,27,00,48,24.50
2021,06,27,00,49,24.40
2021,06,27,00,50,24.30
2021,06,27,00,51,24.30
2021,06,27,00,52,24.20
2021,06,27,00,53,24.10
2021,06,27,00,54,24.00
2021,06,27,00,55,23.90
2021,06,27,00,56,23.90
2021,06,27,00,57,23.80
2021,06,27,00,58,23.80
2021,06,27,00,59,23.70
2021,06,27,01,00,23.60
2021,06,27,01,01,23.60
2021,06,27,01,02,23.50
2021,06,27,01,03,23.50
2021,06,27,01,04,23.40
2021,06,27,01,05,23.40
2021,06,27,01,06,23.30
2021,06,27,01,07,23.20
2021,06,27,01,08,23.20
2021,06,27,01,09,23.10
2021,06,27,01,10,23.10
2021,06,27,01,11,23.00
2021,06,27,01,12,23.00
2021,06,27,01,13,22.90
2021,06,27,01,14,22.90
2021,06,27,01,15,22.90
2021,06,27,01,16,22.80
2021,06,27,01,17,22.80
2021,06,27,01,18,22.70
2021,06,27,01,19,22.70
2021,06,27,01,20,22.60
2021,06,27,01,21,22.60
2021,06,27,01,22,22.60
2021,06,27,01,23,22.50
2021,06,27,01,24,22.50
2021,06,27,01,25,22.50
2021,06,27,01,26,22.50
2021,06,27,01,27,22.50
2021,06,27,01,28,22.50
2021,06,27,01,29,22.60
2021,06,27,01,30,22.50
2021,06,27,01,31,22.50
2021,06,27,01,32,22.50
2021,06,27,01,33,22.40
2021,06,27,01,34,22.40
2021,06,27,01,35,22.40
2021,06,27,01,36,22.40
2021,06,27,01,37,22.40
2021,06,27,01,38,22.30
2021,06,27,01,39,22.30
2021,06,27,01,40,22.30
2021,06,27,01,41,22.30
2021,06,27,01,42,22.30
2021,06,27,01,43,22.30
2021,06,27,01,44,22.30
2021,06,27,01,45,22.30
2021,06,27,01,46,22.30
2021,06,27,01,47,22.30
2021,06,27,01,48,22.30
2021,06,27,01,49,22.30
2021,06,27,01,50,22.30
2021,06,27,01,51,22.30
2021,06,27,01,52,22.30
2021,06,27,01,53,22.30
2021,06,27,01,54,22.40
2021,06,27,01,55,22.40
2021,06,27,01,56,22.30
2021,06,27,01,57,22.30
2021,06,27,01,58,22.30
2021,06,27,01,59,22.30
2021,06,27,02,00,22.30
2021,06,27,02,01,22.30
2021,06,27,02,02,22.30
2021,06,27,02,03,22.30
2021,06,27,02,04,22.30
2021,06,27,02,05,22.30
2021,06,27,02,06,22.30
2021,06,27,02,07,22.20
2021,06,27,02,08,22.20
2021,06,27,02,09,22.20
2021,06,27,02,10,22.20
2021,06,27,02,11,22.10
2021,06,27,02,12,22.10
2021,06,27,02,13,22.10
2021,06,27,02,14,22.10
2021,06,27,02,15,22.10
2021,06,27,02,16,22.00
2021,06,27,02,17,22.00
2021,06,27,02,18,22.00
2021,06,27,02,19,22.00
2021,06,27,02,20,21.90
2021,06,27,02,21,21.90
2021,06,27,02,22,21.90
2021,06,27,02,23,21.90
2021,06,27,02,24,21.90
2021,06,27,02,25,21.90
2021,06,27,02,26,21.90
2021,06,27,02,27,21.90
2021,06,27,02,28,21.90
2021,06,27,02,29,21.90
2021,06,27,02,30,21.90
2021,06,27,02,31,21.90
2021,06,27,02,32,21.90
2021,06,27,02,33,21.90
2021,06,27,02,34,21.90
2021,06,27,02,35,22.00
2021,06,27,02,36,22.00
2021,06,27,02,37,22.00
2021,06,27,02,38,22.10
2021,06,27,02,39,22.10
2021,06,27,02,40,22.10
2021,06,27,02,41,22.10
2021,06,27,02,42,22.10
2021,06,27,02,43,22.00
2021,06,27,02,44,22.00
2021,06,27,02,45,22.00
2021,06,27,02,46,22.00
2021,06,27,02,47,22.00
2021,06,27,02,48,22.00
2021,06,27,02,49,22.00
2021,06,27,02,50,22.00
2021,06,27,02,51,22.00
2021,06,27,02,52,22.00
2021,06,27,02,53,22.00
2021,06,27,02,54,22.00
2021,06,27,02,55,22.00
2021,06,27,02,56,22.00
2021,06,27,02,57,22.00
2021,06,27,02,58,22.00
2021,06,27,02,59,22.00
2021,06,27,03,00,22.00
2021,06,27,03,01,22.00
2021,06,27,03,02,22.10
2021,06,27,03,03,22.10
2021,06,27,03,04,22.10
2021,06,27,03,05,22.10
2021,06,27,03,06,22.20
2021,06,27,03,07,22.20
2021,06,27,03,08,22.20
2021,06,27,03,09,22.20
2021,06,27,03,10,22.20
2021,06,27,03,11,22.20
2021,06,27,03,12,22.20
2021,06,27,03,13,22.20
2021,06,27,03,14,22.20
2021,06,27,03,15,22.20
2021,06,27,03,16,22.20
2021,06,27,03,17,22.20
2021,06,27,03,18,22.20
2021,06,27,03,19,22.20
2021,06,27,03,20,22.20
2021,06,27,03,21,22.20
2021,06,27,03,22,22.20
2021,06,27,03,23,22.20
2021,06,27,03,24,22.20
2021,06,27,03,25,22.10
2021,06,27,03,26,22.10
2021,06,27,03,27,22.10
2021,06,27,03,28,22.10
2021,06,27,03,29,22.10
2021,06,27,03,30,22.10
2021,06,27,03,31,22.00
2021,06,27,03,32,22.00
2021,06,27,03,33,22.00
2021,06,27,03,34,21.90
2021,06,27,03,35,21.90
2021,06,27,03,36,21.80
2021,06,27,03,37,21.80
2021,06,27,03,38,21.80
2021,06,27,03,39,21.70
2021,06,27,03,40,21.70
2021,06,27,03,41,21.70
2021,06,27,03,42,21.60
2021,06,27,03,43,21.60
2021,06,27,03,44,21.60
2021,06,27,03,45,21.60
2021,06,27,03,46,21.50
2021,06,27,03,47,21.50
2021,06,27,03,48,21.50
2021,06,27,03,49,21.50
2021,06,27,03,50,21.50
2021,06,27,03,51,21.50
2021,06,27,03,52,21.50
2021,06,27,03,53,21.50
2021,06,27,03,54,21.50
2021,06,27,03,55,21.40
2021,06,27,03,56,21.50
2021,06,27,03,57,21.50
2021,06,27,03,58,21.50
2021,06,27,03,59,21.50
2021,06,27,04,00,21.50
2021,06,27,04,01,21.60
2021,06,27,04,02,21.60
2021,06,27,04,03,21.70
2021,06,27,04,04,21.70
2021,06,27,04,05,21.70
2021,06,27,04,06,21.70
2021,06,27,04,07,21.70
2021,06,27,04,08,21.70
2021,06,27,04,09,21.70
2021,06,27,04,10,21.70
2021,06,27,04,11,21.70
2021,06,27,04,12,21.60
2021,06,27,04,13,21.60
2021,06,27,04,14,21.60
2021,06,27,04,15,21.60
2021,06,27,04,16,21.60
2021,06,27,04,17,21.60
2021,06,27,04,18,21.60
2021,06,27,04,19,21.60
2021,06,27,04,20,21.60
2021,06,27,04,21,21.60
2021,06,27,04,22,21.60
2021,06,27,04,23,21.60
2021,06,27,04,24,21.60
2021,06,27,04,25,21.60
2021,06,27,04,26,21.70
2021,06,27,04,27,21.70
2021,06,27,04,28,21.70
2021,06,27,04,29,21.70
2021,06,27,04,30,21.70
2021,06,27,04,31,21.80
2021,06,27,04,32,21.80
2021,06,27,04,33,21.80
2021,06,27,04,34,21.80
2021,06,27,04,35,21.80
2021,06,27,04,36,21.90
2021,06,27,04,37,21.90
2021,06,27,04,38,21.90
2021,06,27,04,39,22.00
2021,06,27,04,40,22.00
2021,06,27,04,41,22.00
2021,06,27,04,42,22.00
2021,06,27,04,43,22.10
2021,06,27,04,44,22.10
2021,06,27,04,45,22.20
2021,06,27,04,46,22.20
2021,06,27,04,47,22.20
2021,06,27,04,48,22.20
2021,06,27,04,49,22.30
2021,06,27,04,50,22.20
2021,06,27,04,51,22.20
2021,06,27,04,52,22.20
2021,06,27,04,53,22.20
2021,06,27,04,54,22.10
2021,06,27,04,55,22.10
2021,06,27,04,56,22.10
2021,06,27,04,57,22.00
2021,06,27,04,58,21.90
2021,06,27,04,59,21.90
2021,06,27,05,00,21.80
2021,06,27,05,01,21.70
2021,06,27,05,02,21.70
2021,06,27,05,03,21.70
2021,06,27,05,04,21.70
2021,06,27,05,05,21.60
2021,06,27,05,06,21.60
2021,06,27,05,07,21.60
2021,06,27,05,08,21.60
2021,06,27,05,09,21.60
2021,06,27,05,10,21.60
2021,06,27,05,11,21.60
2021,06,27,05,12,21.60
2021,06,27,05,13,21.60
2021,06,27,05,14,21.60
2021,06,27,05,15,21.50
2021,06,27,05,16,21.60
2021,06,27,05,17,21.60
2021,06,27,05,18,21.60
2021,06,27,05,19,21.60
2021,06,27,05,20,21.60
2021,06,27,05,21,21.60
2021,06,27,05,22,21.60
2021,06,27,05,23,21.60
2021,06,27,05,24,21.60
2021,06,27,05,25,21.60
2021,06,27,05,26,21.60
2021,06,27,05,27,21.50
2021,06,27,05,28,21.50
2021,06,27,05,29,21.40
2021,06,27,05,30,21.40
2021,06,27,05,31,21.40
2021,06,27,05,32,21.40
2021,06,27,05,33,21.40
2021,06,27,05,34,21.40
2021,06,27,05,35,21.40
2021,06,27,05,36,21.40
2021,06,27,05,37,21.40
2021,06,27,05,38,21.40
2021,06,27,05,39,21.40
2021,06,27,05,40,21.40
2021,06,27,05,41,21.40
2021,06,27,05,42,21.30
2021,06,27,05,43,21.30
2021,06,27,05,44,21.30
2021,06,27,05,45,21.30
2021,06,27,05,46,21.20
2021,06,27,05,47,21.20
2021,06,27,05,48,21.20
2021,06,27,05,49,21.20
2021,06,27,05,50,21.20
2021,06,27,05,51,21.20
2021,06,27,05,52,21.20
2021,06,27,05,53,21.20
2021,06,27,05,54,21.20
2021,06,27,05,55,21.10
2021,06,27,05,56,21.20
2021,06,27,05,57,21.20
2021,06,27,05,58,21.20
2021,06,27,05,59,21.10
2021,06,27,06,00,21.10
2021,06,27,06,01,21.10
2021,06,27,06,02,21.10
2021,06,27,06,03,21.10
2021,06,27,06,04,21.20
2021,06,27,06,05,21.20
2021,06,27,06,06,21.20
2021,06,27,06,07,21.20
2021,06,27,06,08,21.20
2021,06,27,06,09,21.20
2021,06,27,06,10,21.20
2021,06,27,06,11,21.20
2021,06,27,06,12,21.20
2021,06,27,06,13,21.30
2021,06,27,06,14,21.30
2021,06,27,06,15,21.30
2021,06,27,06,16,21.30
2021,06,27,06,17,21.20
2021,06,27,06,18,21.20
2021,06,27,06,19,21.20
2021,06,27,06,20,21.20
2021,06,27,06,21,21.20
2021,06,27,06,22,21.20
2021,06,27,06,23,21.20
2021,06,27,06,24,21.20
2021,06,27,06,25,21.20
2021,06,27,06,26,21.20
2021,06,27,06,27,21.20
2021,06,27,06,28,21.20
2021,06,27,06,29,21.30
2021,06,27,06,30,21.30
2021,06,27,06,31,21.30
2021,06,27,06,32,21.30
2021,06,27,06,33,21.30
2021,06,27,06,34,21.40
2021,06,27,06,35,21.40
2021,06,27,06,36,21.40
2021,06,27,06,37,21.50
2021,06,27,06,38,21.50
2021,06,27,06,39,21.50
2021,06,27,06,40,21.60
2021,06,27,06,41,21.60
2021,06,27,06,42,21.60
2021,06,27,06,43,21.60
2021,06,27,06,44,21.70
2021,06,27,06,45,21.70
2021,06,27,06,46,21.80
2021,06,27,06,47,21.80
2021,06,27,06,48,21.80
2021,06,27,06,49,21.90
2021,06,27,06,50,21.90
2021,06,27,06,51,21.90
2021,06,27,06,52,22.00
2021,06,27,06,53,22.00
2021,06,27,06,54,22.10
2021,06,27,06,55,22.10
2021,06,27,06,56,22.10
2021,06,27,06,57,22.20
2021,06,27,06,58,22.20
2021,06,27,06,59,22.20
2021,06,27,07,00,22.30
2021,06,27,07,01,22.40
2021,06,27,07,02,22.40
2021,06,27,07,03,22.50
2021,06,27,07,04,22.50
2021,06,27,07,05,22.60
2021,06,27,07,06,22.70
2021,06,27,07,07,22.80
2021,06,27,07,08,22.80
2021,06,27,07,09,22.90
2021,06,27,07,10,23.00
2021,06,27,07,11,23.10
2021,06,27,07,12,23.10
2021,06,27,07,13,23.20
2021,06,27,07,14,23.20
2021,06,27,07,15,23.30
2021,06,27,07,16,23.40
2021,06,27,07,17,23.40
2021,06,27,07,18,23.50
2021,06,27,07,19,23.60
2021,06,27,07,20,23.70
2021,06,27,07,21,23.80
2021,06,27,07,22,23.90
2021,06,27,07,23,24.00
2021,06,27,07,24,24.10
2021,06,27,07,25,24.20
2021,06,27,07,26,24.30
2021,06,27,07,27,24.30
2021,06,27,07,28,24.40
2021,06,27,07,29,24.60
2021,06,27,07,30,24.70
2021,06,27,07,31,24.80
2021,06,27,07,32,24.90
2021,06,27,07,33,25.10
2021,06,27,07,34,25.20
2021,06,27,07,35,25.30
2021,06,27,07,36,25.50
2021,06,27,07,37,25.60
2021,06,27,07,38,25.70
2021,06,27,07,39,25.80
2021,06,27,07,40,25.90
2021,06,27,07,41,26.00
2021,06,27,07,42,26.10
2021,06,27,07,43,26.20
2021,06,27,07,44,26.30
2021,06,27,07,45,26.40
2021,06,27,07,46,26.50
2021,06,27,07,47,26.50
2021,06,27,07,48,26.60
2021,06,27,07,49,26.70
2021,06,27,07,50,26.70
2021,06,27,07,51,26.80
2021,06,27,07,52,26.80
2021,06,27,07,53,26.80
2021,06,27,07,54,26.80
2021,06,27,07,55,26.80
2021,06,27,07,56,26.80
2021,06,27,07,57,26.80
2021,06,27,07,58,26.80
2021,06,27,07,59,26.80
2021,06,27,08,00,26.80
2021,06,27,08,01,26.80
2021,06,27,08,02,26.80
2021,06,27,08,03,26.80
2021,06,27,08,04,26.70
2021,06,27,08,05,26.70
2021,06,27,08,06,26.70
2021,06,27,08,07,26.70
2021,06,27,08,08,26.70
2021,06,27,08,09,26.80
2021,06,27,08,10,26.80
2021,06,27,08,11,26.80
2021,06,27,08,12,26.90
2021,06,27,08,13,26.90
2021,06,27,08,14,27.00
2021,06,27,08,15,27.00
2021,06,27,08,16,27.00
2021,06,27,08,17,27.00
2021,06,27,08,18,27.00
2021,06,27,08,19,27.00
2021,06,27,08,20,27.00
2021,06,27,08,21,27.00
2021,06,27,08,22,27.10
2021,06,27,08,23,27.10
2021,06,27,08,24,27.10
2021,06,27,08,25,27.10
2021,06,27,08,26,27.10
2021,06,27,08,27,27.20
2021,06,27,08,28,27.30
2021,06,27,08,29,27.40
2021,06,27,08,30,27.50
2021,06,27,08,31,27.60
2021,06,27,08,32,27.70
2021,06,27,08,33,27.80
2021,06,27,08,34,27.90
2021,06,27,08,35,28.00
2021,06,27,08,36,28.10
2021,06,27,08,37,28.20
2021,06,27,08,38,28.20
2021,06,27,08,39,28.30
2021,06,27,08,40,28.30
2021,06,27,08,41,28.30
2021,06,27,08,42,28.30
2021,06,27,08,43,28.20
2021,06,27,08,44,28.10
2021,06,27,08,45,28.10
2021,06,27,08,46,28.00
2021,06,27,08,47,27.90
2021,06,27,08,48,27.80
2021,06,27,08,49,27.80
2021,06,27,08,50,27.70
2021,06,27,08,51,27.60
2021,06,27,08,52,27.60
2021,06,27,08,53,27.60
2021,06,27,08,54,27.50
2021,06,27,08,55,27.50
2021,06,27,08,56,27.50
2021,06,27,08,57,27.50
2021,06,27,08,58,27.50
2021,06,27,08,59,27.40
2021,06,27,09,00,27.40
2021,06,27,09,01,27.40
2021,06,27,09,02,27.40
2021,06,27,09,03,27.40
2021,06,27,09,04,27.40
2021,06,27,09,05,27.30
2021,06,27,09,06,27.30
2021,06,27,09,07,27.20
2021,06,27,09,08,27.20
2021,06,27,09,09,27.20
2021,06,27,09,10,27.20
2021,06,27,09,11,27.20
2021,06,27,09,12,27.20
2021,06,27,09,13,27.20
2021,06,27,09,14,27.20
2021,06,27,09,15,27.30
2021,06,27,09,16,27.30
2021,06,27,09,17,27.50
2021,06,27,09,18,27.60
2021,06,27,09,19,27.70
2021,06,27,09,20,27.80
2021,06,27,09,21,27.80
2021,06,27,09,22,27.80
2021,06,27,09,23,27.90
2021,06,27,09,24,28.00
2021,06,27,09,25,28.00
2021,06,27,09,26,28.10
2021,06,27,09,27,28.20
2021,06,27,09,28,28.30
2021,06,27,09,29,28.30
2021,06,27,09,30,28.40
2021,06,27,09,31,28.40
2021,06,27,09,32,28.50
2021,06,27,09,33,28.50
2021,06,27,09,34,28.50
2021,06,27,09,35,28.50
2021,06,27,09,36,28.50
2021,06,27,09,37,28.50
2021,06,27,09,38,28.60
2021,06,27,09,39,28.60
2021,06,27,09,40,28.60
2021,06,27,09,41,28.60
2021,06,27,09,42,28.70
2021,06,27,09,43,28.80
2021,06,27,09,44,28.80
2021,06,27,09,45,28.90
2021,06,27,09,46,28.90
2021,06,27,09,47,29.00
2021,06,27,09,48,29.10
2021,06,27,09,49,29.10
2021,06,27,09,50,29.20
2021,06,27,09,51,29.30
2021,06,27,09,52,29.30
2021,06,27,09,53,29.40
2021,06,27,09,54,29.50
2021,06,27,09,55,29.60
2021,06,27,09,56,29.70
2021,06,27,09,57,29.80
2021,06,27,09,58,29.90
2021,06,27,09,59,30.00
2021,06,27,10,00,30.00
2021,06,27,10,01,30.10
2021,06,27,10,02,30.10
2021,06,27,10,03,30.20
2021,06,27,10,04,30.20
2021,06,27,10,05,30.30
2021,06,27,10,06,30.40
2021,06,27,10,07,30.60
2021,06,27,10,08,30.70
2021,06,27,10,09,30.80
2021,06,27,10,10,30.90
2021,06,27,10,11,31.00
2021,06,27,10,12,31.10
2021,06,27,10,13,31.30
2021,06,27,10,14,31.40
2021,06,27,10,15,31.60
2021,06,27,10,16,31.70
2021,06,27,10,17,31.80
2021,06,27,10,18,31.80
2021,06,27,10,19,31.80
2021,06,27,10,20,31.80
2021,06,27,10,21,31.80
2021,06,27,10,22,31.60
2021,06,27,10,23,31.40
2021,06,27,10,24,31.20
2021,06,27,10,25,30.90
2021,06,27,10,26,30.80
2021,06,27,10,27,30.80
2021,06,27,10,28,30.70
2021,06,27,10,29,30.70
2021,06,27,10,30,30.70
2021,06,27,10,31,30.80
2021,06,27,10,32,31.00
2021,06,27,10,33,31.00
2021,06,27,10,34,30.90
2021,06,27,10,35,30.90
2021,06,27,10,36,30.80
2021,06,27,10,37,30.70
2021,06,27,10,38,30.70
2021,06,27,10,39,30.70
2021,06,27,10,40,30.70
2021,06,27,10,41,30.60
2021,06,27,10,42,30.60
2021,06,27,10,43,30.60
2021,06,27,10,44,30.60
2021,06,27,10,45,30.60
2021,06,27,10,46,30.50
2021,06,27,10,47,30.40
2021,06,27,10,48,30.40
2021,06,27,10,49,30.30
2021,06,27,10,50,30.20
2021,06,27,10,51,30.10
2021,06,27,10,52,30.10
2021,06,27,10,53,30.10
2021,06,27,10,54,30.10
2021,06,27,10,55,30.10
2021,06,27,10,56,30.10
2021,06,27,10,57,30.20
2021,06,27,10,58,30.20
2021,06,27,10,59,30.20
2021,06,27,11,00,30.30
2021,06,27,11,01,30.40
2021,06,27,11,02,30.50
2021,06,27,11,03,30.50
2021,06,27,11,04,30.70
2021,06,27,11,05,30.70
2021,06,27,11,06,30.80
2021,06,27,11,07,30.90
2021,06,27,11,08,30.90
2021,06,27,11,09,30.90
2021,06,27,11,10,30.90
2021,06,27,11,11,30.90
2021,06,27,11,12,30.90
2021,06,27,11,13,30.90
2021,06,27,11,14,31.00
2021,06,27,11,15,31.00
2021,06,27,11,16,31.00
2021,06,27,11,17,31.00
2021,06,27,11,18,31.10
2021,06,27,11,19,31.10
2021,06,27,11,20,31.20
2021,06,27,11,21,31.20
2021,06,27,11,22,31.30
2021,06,27,11,23,31.40
2021,06,27,11,24,31.50
2021,06,27,11,25,31.60
2021,06,27,11,26,31.60
2021,06,27,11,27,31.70
2021,06,27,11,28,31.80
2021,06,27,11,29,31.90
2021,06,27,11,30,31.90
2021,06,27,11,31,31.90
2021,06,27,11,32,32.00
2021,06,27,11,33,32.10
2021,06,27,11,34,32.10
2021,06,27,11,35,32.20
2021,06,27,11,36,32.30
2021,06,27,11,37,32.30
2021,06,27,11,38,32.40
2021,06,27,11,39,32.40
2021,06,27,11,40,32.40
2021,06,27,11,41,32.40
2021,06,27,11,42,32.50
2021,06,27,11,43,32.60
2021,06,27,11,44,32.60
2021,06,27,11,45,32.60
2021,06,27,11,46,32.70
2021,06,27,11,47,32.70
2021,06,27,11,48,32.90
2021,06,27,11,49,33.00
2021,06,27,11,50,33.10
2021,06,27,11,51,33.10
2021,06,27,11,52,33.10
2021,06,27,11,53,33.10
2021,06,27,11,54,33.10
2021,06,27,11,55,33.20
2021,06,27,11,56,33.20
2021,06,27,11,57,33.20
2021,06,27,11,58,33.10
2021,06,27,11,59,33.20
2021,06,27,12,00,33.20
2021,06,27,12,01,33.30
2021,06,27,12,02,33.30
2021,06,27,12,03,33.30
2021,06,27,12,04,33.30
2021,06,27,12,05,33.30
2021,06,27,12,06,33.30
2021,06,27,12,07,33.30
2021,06,27,12,08,33.40
2021,06,27,12,09,33.40
2021,06,27,12,10,33.50
2021,06,27,12,11,33.60
2021,06,27,12,12,33.70
2021,06,27,12,13,33.70
2021,06,27,12,14,33.80
2021,06,27,12,15,33.70
2021,06,27,12,16,33.80
2021,06,27,12,17,33.80
2021,06,27,12,18,33.90
2021,06,27,12,19,34.00
2021,06,27,12,20,34.10
2021,06,27,12,21,34.20
2021,06,27,12,22,34.30
2021,06,27,12,23,34.40
2021,06,27,12,24,34.50
2021,06,27,12,25,34.50
2021,06,27,12,26,34.40
2021,06,27,12,27,34.30
2021,06,27,12,28,34.30
2021,06,27,12,29,34.20
2021,06,27,12,30,34.20
2021,06,27,12,31,34.10
2021,06,27,12,32,34.00
2021,06,27,12,33,33.90
2021,06,27,12,34,33.90
2021,06,27,12,35,33.90
2021,06,27,12,36,33.90
2021,06,27,12,37,33.80
2021,06,27,12,38,33.80
2021,06,27,12,39,33.80
2021,06,27,12,40,33.80
2021,06,27,12,41,33.90
2021,06,27,12,42,34.00
2021,06,27,12,43,34.10
2021,06,27,12,44,34.10
2021,06,27,12,45,34.10
2021,06,27,12,46,34.10
2021,06,27,12,47,34.20
2021,06,27,12,48,34.20
2021,06,27,12,49,34.20
2021,06,27,12,50,34.20
2021,06,27,12,51,34.20
2021,06,27,12,52,34.20
2021,06,27,12,53,34.20
2021,06,27,12,54,34.20
2021,06,27,12,55,34.20
2021,06,27,12,56,34.20
2021,06,27,12,57,34.20
2021,06,27,12,58,34.20
2021,06,27,12,59,34.20
2021,06,27,13,00,34.30
2021,06,27,13,01,34.30
2021,06,27,13,02,34.20
2021,06,27,13,03,34.20
2021,06,27,13,04,34.20
2021,06,27,13,05,34.20
2021,06,27,13,06,34.10
2021,06,27,13,07,34.10
2021,06,27,13,08,34.10
2021,06,27,13,09,34.00
2021,06,27,13,10,34.00
2021,06,27,13,11,34.10
2021,06,27,13,12,34.10
2021,06,27,13,13,34.10
2021,06,27,13,14,34.20
2021,06,27,13,15,34.30
2021,06,27,13,16,34.40
2021,06,27,13,17,34.50
2021,06,27,13,18,34.70
2021,06,27,13,19,34.70
2021,06,27,13,20,34.80
2021,06,27,13,21,34.90
2021,06,27,13,22,34.90
2021,06,27,13,23,35.00
2021,06,27,13,24,35.00
2021,06,27,13,25,35.10
2021,06,27,13,26,35.10
2021,06,27,13,27,35.20
2021,06,27,13,28,35.30
2021,06,27,13,29,35.30
2021,06,27,13,30,35.30
2021,06,27,13,31,35.30
2021,06,27,13,32,35.40
2021,06,27,13,33,35.30
2021,06,27,13,34,35.40
2021,06,27,13,35,35.30
2021,06,27,13,36,35.30
2021,06,27,13,37,35.30
2021,06,27,13,38,35.30
2021,06,27,13,39,35.30
2021,06,27,13,40,35.40
2021,06,27,13,41,35.50
2021,06,27,13,42,35.50
2021,06,27,13,43,35.50
2021,06,27,13,44,35.50
2021,06,27,13,45,35.50
2021,06,27,13,46,35.50
2021,06,27,13,47,35.30
2021,06,27,13,48,35.20
2021,06,27,13,49,35.20
2021,06,27,13,50,35.20
2021,06,27,13,51,35.10
2021,06,27,13,52,35.00
2021,06,27,13,53,34.90
2021,06,27,13,54,34.90
2021,06,27,13,55,34.90
2021,06,27,13,56,35.00
2021,06,27,13,57,35.00
2021,06,27,13,58,35.10
2021,06,27,13,59,35.20
2021,06,27,14,00,35.20
2021,06,27,14,01,35.30
2021,06,27,14,02,35.30
2021,06,27,14,03,35.30
2021,06,27,14,04,35.40
2021,06,27,14,05,35.50
2021,06,27,14,06,35.60
2021,06,27,14,07,35.70
2021,06,27,14,08,35.80
2021,06,27,14,09,35.80
2021,06,27,14,10,35.80
2021,06,27,14,11,35.90
2021,06,27,14,12,35.90
2021,06,27,14,13,36.00
2021,06,27,14,14,36.10
2021,06,27,14,15,36.10
2021,06,27,14,16,36.20
2021,06,27,14,17,36.20
2021,06,27,14,18,36.10
2021,06,27,14,19,36.10
2021,06,27,14,20,36.10
2021,06,27,14,21,36.10
2021,06,27,14,22,36.00
2021,06,27,14,23,36.00
2021,06,27,14,24,36.00
2021,06,27,14,25,36.10
2021,06,27,14,26,36.10
2021,06,27,14,27,36.20
2021,06,27,14,28,36.30
2021,06,27,14,29,36.40
2021,06,27,14,30,36.50
2021,06,27,14,31,36.50
2021,06,27,14,32,36.60
2021,06,27,14,33,36.60
2021,06,27,14,34,36.60
2021,06,27,14,35,36.60
2021,06,27,14,36,36.70
2021,06,27,14,37,36.70
2021,06,27,14,38,36.70
2021,06,27,14,39,36.70
2021,06,27,14,40,36.60
2021,06,27,14,41,36.60
2021,06,27,14,42,36.60
2021,06,27,14,43,36.70
2021,06,27,14,44,36.80
2021,06,27,14,45,36.90
2021,06,27,14,46,36.90
2021,06,27,14,47,37.00
2021,06,27,14,48,37.00
2021,06,27,14,49,37.00
2021,06,27,14,50,36.90
2021,06,27,14,51,36.90
2021,06,27,14,52,36.90
2021,06,27,14,53,37.00
2021,06,27,14,54,37.00
2021,06,27,14,55,37.00
2021,06,27,14,56,37.00
2021,06,27,14,57,37.00
2021,06,27,14,58,37.00
2021,06,27,14,59,36.90
2021,06,27,15,00,36.90
2021,06,27,15,01,36.90
2021,06,27,15,02,36.90
2021,06,27,15,03,36.90
2021,06,27,15,04,36.90
2021,06,27,15,05,36.90
2021,06,27,15,06,36.90
2021,06,27,15,07,37.00
2021,06,27,15,08,37.00
2021,06,27,15,09,37.10
2021,06,27,15,10,37.10
2021,06,27,15,11,37.10
2021,06,27,15,12,37.20
2021,06,27,15,13,37.30
2021,06,27,15,14,37.40
2021,06,27,15,15,37.50
2021,06,27,15,16,37.60
2021,06,27,15,17,37.60
2021,06,27,15,18,37.60
2021,06,27,15,19,37.70
2021,06,27,15,20,37.70
2021,06,27,15,21,37.80
2021,06,27,15,22,37.80
2021,06,27,15,23,37.80
2021,06,27,15,24,37.90
2021,06,27,15,25,37.90
2021,06,27,15,26,37.90
2021,06,27,15,27,37.90
2021,06,27,15,28,37.80
2021,06,27,15,29,37.70
2021,06,27,15,30,37.70
2021,06,27,15,31,37.70
2021,06,27,15,32,37.70
2021,06,27,15,33,37.70
2021,06,27,15,34,37.80
2021,06,27,15,35,37.90
2021,06,27,15,36,37.90
2021,06,27,15,37,38.00
2021,06,27,15,38,38.10
2021,06,27,15,39,38.10
2021,06,27,15,40,38.00
2021,06,27,15,41,38.00
2021,06,27,15,42,38.00
2021,06,27,15,43,37.90
2021,06,27,15,44,37.80
2021,06,27,15,45,37.80
2021,06,27,15,46,37.70
2021,06,27,15,47,37.50
2021,06,27,15,48,37.40
2021,06,27,15,49,37.30
2021,06,27,15,50,37.30
2021,06,27,15,51,37.30
2021,06,27,15,52,37.40
2021,06,27,15,53,37.50
2021,06,27,15,54,37.60
2021,06,27,15,55,37.60
2021,06,27,15,56,37.70
2021,06,27,15,57,37.70
2021,06,27,15,58,37.80
2021,06,27,15,59,37.90
2021,06,27,16,00,38.00
2021,06,27,16,01,38.10
2021,06,27,16,02,38.20
2021,06,27,16,03,38.30
2021,06,27,16,04,38.40
2021,06,27,16,05,38.40
2021,06,27,16,06,38.50
2021,06,27,16,07,38.50
2021,06,27,16,08,38.60
2021,06,27,16,09,38.70
2021,06,27,16,10,38.80
2021,06,27,16,11,38.80
2021,06,27,16,12,38.90
2021,06,27,16,13,38.90
2021,06,27,16,14,38.90
2021,06,27,16,15,38.90
2021,06,27,16,16,38.80
2021,06,27,16,17,38.90
2021,06,27,16,18,38.90
2021,06,27,16,19,38.90
2021,06,27,16,20,38.90
2021,06,27,16,21,38.90
2021,06,27,16,22,38.90
2021,06,27,16,23,39.00
2021,06,27,16,24,38.90
2021,06,27,16,25,39.00
2021,06,27,16,26,39.00
2021,06,27,16,27,39.00
2021,06,27,16,28,39.10
2021,06,27,16,29,39.10
2021,06,27,16,30,39.10
2021,06,27,16,31,39.10
2021,06,27,16,32,39.10
2021,06,27,16,33,39.10
2021,06,27,16,34,39.10
2021,06,27,16,35,39.10
2021,06,27,16,36,39.20
2021,06,27,16,37,39.20
2021,06,27,16,38,39.20
2021,06,27,16,39,39.20
2021,06,27,16,40,39.20
2021,06,27,16,41,39.20
2021,06,27,16,42,39.20
2021,06,27,16,43,39.20
2021,06,27,16,44,39.20
2021,06,27,16,45,39.20
2021,06,27,16,46,39.20
2021,06,27,16,47,39.00
2021,06,27,16,48,38.80
2021,06,27,16,49,38.70
2021,06,27,16,50,38.60
2021,06,27,16,51,38.50
2021,06,27,16,52,38.40
2021,06,27,16,53,38.30
2021,06,27,16,54,38.30
2021,06,27,16,55,38.30
2021,06,27,16,56,38.40
2021,06,27,16,57,38.40
2021,06,27,16,58,38.50
2021,06,27,16,59,38.50
2021,06,27,17,00,38.40
2021,06,27,17,01,38.30
2021,06,27,17,02,38.30
2021,06,27,17,03,38.30
2021,06,27,17,04,38.30
2021,06,27,17,05,38.30
2021,06,27,17,06,38.20
2021,06,27,17,07,38.30
2021,06,27,17,08,38.30
2021,06,27,17,09,38.20
2021,06,27,17,10,38.10
2021,06,27,17,11,38.00
2021,06,27,17,12,37.80
2021,06,27,17,13,37.70
2021,06,27,17,14,37.50
2021,06,27,17,15,37.20
2021,06,27,17,16,36.90
2021,06,27,17,17,36.70
2021,06,27,17,18,36.50
2021,06,27,17,19,36.20